WZZ76U LZIB-LIMJ

Flight info

Callsign WZZ76U
Flight time 1h 11m
Altitude 36000
Route TOVKA DCT UBUXI DCT DETSA/N0451F370 DCT OSKOR DCT PIKOT
Aircraft A320/M-SDE3FGHIRWY/LB1

Departure

Time 2026-04-21 16:36
Airport M. R. Štefánik Airport (LZIB)

Arrival

Time 2026-04-21 17:48
Airport Genoa Cristoforo Colombo Airport (LIMJ)
Time Latitude Longitude Altitude Speed Heading
2026-04-21 16:08 48.16976 17.20171 432 ft 0 kts 314°
2026-04-21 16:25 48.16962 17.20193 426 ft 4 kts 314°
2026-04-21 16:25 48.16943 17.20222 418 ft 4 kts 310°
2026-04-21 16:25 48.16931 17.20233 419 ft 3 kts 227°
2026-04-21 16:26 48.16945 17.20253 424 ft 3 kts 223°
2026-04-21 16:26 48.16948 17.20257 423 ft 0 kts 223°
2026-04-21 16:28 48.16945 17.20253 424 ft 3 kts 224°
2026-04-21 16:29 48.16908 17.20197 428 ft 11 kts 225°
2026-04-21 16:29 48.16848 17.20147 427 ft 6 kts 144°
2026-04-21 16:29 48.16818 17.20203 424 ft 8 kts 132°
2026-04-21 16:29 48.16769 17.20277 427 ft 12 kts 136°
2026-04-21 16:30 48.16710 17.20370 427 ft 10 kts 108°
2026-04-21 16:30 48.16757 17.20439 432 ft 11 kts 45°
2026-04-21 16:30 48.16824 17.20539 428 ft 15 kts 45°
2026-04-21 16:30 48.16900 17.20659 431 ft 17 kts 46°
2026-04-21 16:31 48.16955 17.20747 427 ft 8 kts 48°
2026-04-21 16:31 48.16967 17.20767 426 ft 0 kts 47°
2026-04-21 16:31 48.16983 17.20794 425 ft 7 kts 46°
2026-04-21 16:31 48.17025 17.20866 428 ft 10 kts 85°
2026-04-21 16:32 48.16977 17.20944 431 ft 12 kts 134°
2026-04-21 16:32 48.16901 17.21060 426 ft 19 kts 133°
2026-04-21 16:32 48.16809 17.21217 428 ft 20 kts 135°
2026-04-21 16:32 48.16705 17.21373 427 ft 22 kts 134°
2026-04-21 16:33 48.16592 17.21550 426 ft 24 kts 134°
2026-04-21 16:33 48.16473 17.21737 427 ft 26 kts 133°
2026-04-21 16:33 48.16341 17.21938 422 ft 28 kts 133°
2026-04-21 16:33 48.16213 17.22139 431 ft 27 kts 133°
2026-04-21 16:34 48.16078 17.22347 431 ft 29 kts 134°
2026-04-21 16:34 48.15936 17.22566 425 ft 28 kts 133°
2026-04-21 16:34 48.15815 17.22754 427 ft 24 kts 134°
2026-04-21 16:34 48.15724 17.22901 427 ft 17 kts 125°
2026-04-21 16:35 48.15682 17.23074 427 ft 16 kts 101°
2026-04-21 16:35 48.15735 17.23206 421 ft 16 kts 14°
2026-04-21 16:35 48.15825 17.23106 422 ft 22 kts 314°
2026-04-21 16:35 48.16063 17.22737 422 ft 81 kts 314°
2026-04-21 16:36 48.16585 17.21927 423 ft 133 kts 313°
2026-04-21 16:36 48.17308 17.20788 584 ft 158 kts 318°
2026-04-21 16:36 48.18076 17.19613 1183 ft 157 kts 318°
2026-04-21 16:36 48.18839 17.18434 1720 ft 160 kts 317°
2026-04-21 16:37 48.19666 17.17160 1979 ft 182 kts 317°
2026-04-21 16:37 48.20608 17.15706 2221 ft 207 kts 317°
2026-04-21 16:37 48.21666 17.14071 2562 ft 231 kts 317°
2026-04-21 16:37 48.22823 17.12274 3156 ft 244 kts 317°
2026-04-21 16:38 48.24001 17.10410 3997 ft 249 kts 314°
2026-04-21 16:38 48.24842 17.08079 4750 ft 265 kts 288°
2026-04-21 16:38 48.25242 17.05354 5570 ft 270 kts 285°
2026-04-21 16:38 48.25611 17.02662 6770 ft 253 kts 286°
2026-04-21 16:39 48.25957 17.00128 7896 ft 244 kts 286°
2026-04-21 16:39 48.26317 16.97557 8387 ft 263 kts 284°
2026-04-21 16:39 48.26581 16.94745 8872 ft 280 kts 274°
2026-04-21 16:39 48.26317 16.91803 9650 ft 289 kts 256°
2026-04-21 16:40 48.25486 16.89035 10415 ft 297 kts 241°
2026-04-21 16:40 48.24338 16.86313 10611 ft 320 kts 240°
2026-04-21 16:40 48.23095 16.83422 10906 ft 337 kts 239°
2026-04-21 16:40 48.21819 16.80484 11473 ft 343 kts 238°
2026-04-21 16:41 48.20935 16.78452 11930 ft 345 kts 240°
2026-04-21 16:41 48.19189 16.74432 12847 ft 348 kts 238°
2026-04-21 16:41 48.17865 16.71380 13569 ft 350 kts 238°
2026-04-21 16:41 48.16533 16.68309 14237 ft 352 kts 239°
2026-04-21 16:42 48.15196 16.65230 14808 ft 354 kts 239°
2026-04-21 16:42 48.13856 16.62128 15108 ft 354 kts 242°
2026-04-21 16:42 48.12776 16.58839 15357 ft 352 kts 249°
2026-04-21 16:42 48.11830 16.55438 15620 ft 354 kts 249°
2026-04-21 16:43 48.10875 16.52032 15887 ft 355 kts 249°
2026-04-21 16:43 48.09911 16.48622 16131 ft 355 kts 250°
2026-04-21 16:43 48.08944 16.45203 16390 ft 357 kts 249°
2026-04-21 16:43 48.07987 16.41833 16654 ft 358 kts 249°
2026-04-21 16:44 48.07010 16.38400 16918 ft 359 kts 249°
2026-04-21 16:44 48.06029 16.34956 17178 ft 360 kts 249°
2026-04-21 16:44 48.05049 16.31509 17452 ft 361 kts 249°
2026-04-21 16:44 48.04066 16.28049 17726 ft 363 kts 249°
2026-04-21 16:45 48.03075 16.24576 18002 ft 364 kts 249°
2026-04-21 16:45 48.02078 16.21091 18283 ft 365 kts 249°
2026-04-21 16:45 48.01074 16.17592 18546 ft 367 kts 249°
2026-04-21 16:45 48.00066 16.14089 18796 ft 368 kts 249°
2026-04-21 16:46 47.99054 16.10570 19041 ft 369 kts 249°
2026-04-21 16:46 47.98040 16.07046 19287 ft 370 kts 249°
2026-04-21 16:46 47.97025 16.03511 19541 ft 371 kts 249°
2026-04-21 16:46 47.96007 15.99965 19772 ft 372 kts 249°
2026-04-21 16:47 47.94985 15.96408 20024 ft 373 kts 249°
2026-04-21 16:47 47.93959 15.92863 20292 ft 374 kts 249°
2026-04-21 16:47 47.92917 15.89279 20553 ft 375 kts 249°
2026-04-21 16:47 47.91876 15.85704 20810 ft 376 kts 249°
2026-04-21 16:48 47.90847 15.82168 21063 ft 377 kts 249°
2026-04-21 16:48 47.89789 15.78534 21336 ft 378 kts 249°
2026-04-21 16:48 47.88753 15.74982 21594 ft 379 kts 249°
2026-04-21 16:48 47.87700 15.71376 21867 ft 380 kts 249°
2026-04-21 16:49 47.86646 15.67759 22141 ft 382 kts 249°
2026-04-21 16:49 47.85585 15.64121 22418 ft 383 kts 249°
2026-04-21 16:49 47.84521 15.60474 22692 ft 385 kts 249°
2026-04-21 16:49 47.83449 15.56815 22970 ft 386 kts 249°
2026-04-21 16:50 47.82368 15.53151 23256 ft 387 kts 249°
2026-04-21 16:50 47.81281 15.49470 23542 ft 389 kts 249°
2026-04-21 16:50 47.80193 15.45787 23813 ft 390 kts 249°
2026-04-21 16:50 47.79101 15.42088 24049 ft 392 kts 249°
2026-04-21 16:51 47.78005 15.38373 24285 ft 393 kts 249°
2026-04-21 16:51 47.76905 15.34648 24525 ft 394 kts 249°
2026-04-21 16:51 47.75802 15.30919 24770 ft 395 kts 249°
2026-04-21 16:51 47.74691 15.27175 25021 ft 396 kts 249°
2026-04-21 16:52 47.73572 15.23427 25254 ft 397 kts 249°
2026-04-21 16:52 47.72447 15.19664 25494 ft 399 kts 249°
2026-04-21 16:52 47.71701 15.17170 25670 ft 400 kts 249°
2026-04-21 16:52 47.70201 15.12147 26007 ft 402 kts 249°
2026-04-21 16:53 47.69064 15.08343 26267 ft 404 kts 249°
2026-04-21 16:53 47.67921 15.04522 26531 ft 405 kts 249°
2026-04-21 16:53 47.66773 15.00694 26797 ft 407 kts 249°
2026-04-21 16:53 47.65621 14.96862 27032 ft 408 kts 249°
2026-04-21 16:54 47.64455 14.93000 27294 ft 410 kts 249°
2026-04-21 16:54 47.63285 14.89126 27572 ft 411 kts 249°
2026-04-21 16:54 47.62115 14.85254 27841 ft 411 kts 249°
2026-04-21 16:54 47.61345 14.82713 28019 ft 405 kts 249°
2026-04-21 16:55 47.60192 14.78914 28277 ft 403 kts 249°
2026-04-21 16:55 47.59040 14.75124 28549 ft 404 kts 249°
2026-04-21 16:55 47.57885 14.71328 28829 ft 405 kts 249°
2026-04-21 16:55 47.56723 14.67513 29122 ft 407 kts 249°
2026-04-21 16:56 47.55558 14.63685 29411 ft 409 kts 249°
2026-04-21 16:56 47.54382 14.59832 29688 ft 409 kts 249°
2026-04-21 16:56 47.53209 14.56002 29980 ft 409 kts 249°
2026-04-21 16:56 47.52034 14.52166 30264 ft 409 kts 249°
2026-04-21 16:57 47.50859 14.48335 30489 ft 407 kts 249°
2026-04-21 16:57 47.49690 14.44537 30732 ft 406 kts 249°
2026-04-21 16:57 47.48518 14.40734 30974 ft 405 kts 249°
2026-04-21 16:57 47.47349 14.36944 31215 ft 405 kts 249°
2026-04-21 16:58 47.46179 14.33151 31460 ft 405 kts 249°
2026-04-21 16:58 47.45013 14.29365 31709 ft 405 kts 249°
2026-04-21 16:58 47.43860 14.25630 31959 ft 404 kts 249°
2026-04-21 16:58 47.42694 14.21857 32216 ft 404 kts 249°
2026-04-21 16:59 47.41526 14.18083 32459 ft 404 kts 249°
2026-04-21 16:59 47.40353 14.14305 32720 ft 404 kts 249°
2026-04-21 16:59 47.39183 14.10543 32983 ft 404 kts 249°
2026-04-21 16:59 47.38006 14.06775 33251 ft 403 kts 249°
2026-04-21 17:00 47.36831 14.03016 33525 ft 403 kts 249°
2026-04-21 17:00 47.35658 13.99261 33759 ft 401 kts 249°
2026-04-21 17:00 47.34885 13.96791 33937 ft 399 kts 249°
2026-04-21 17:00 47.33329 13.91827 34264 ft 398 kts 249°
2026-04-21 17:01 47.32166 13.88133 34498 ft 398 kts 249°
2026-04-21 17:01 47.30996 13.84430 34728 ft 397 kts 249°
2026-04-21 17:01 47.29830 13.80746 34956 ft 397 kts 249°
2026-04-21 17:01 47.28658 13.77040 35188 ft 398 kts 249°
2026-04-21 17:02 47.27508 13.73393 35427 ft 399 kts 249°
2026-04-21 17:02 47.26341 13.69692 35653 ft 399 kts 249°
2026-04-21 17:02 47.25170 13.65981 35900 ft 400 kts 249°
2026-04-21 17:02 47.23997 13.62275 36139 ft 399 kts 249°
2026-04-21 17:03 47.22822 13.58578 36386 ft 399 kts 249°
2026-04-21 17:03 47.21646 13.54883 36634 ft 399 kts 249°
2026-04-21 17:03 47.20471 13.51199 36858 ft 398 kts 249°
2026-04-21 17:03 47.19293 13.47521 37052 ft 399 kts 249°
2026-04-21 17:04 47.18106 13.43820 37261 ft 400 kts 249°
2026-04-21 17:04 47.16920 13.40117 37444 ft 400 kts 249°
2026-04-21 17:04 47.15733 13.36409 37643 ft 401 kts 249°
2026-04-21 17:04 47.14540 13.32690 37838 ft 402 kts 249°
2026-04-21 17:05 47.13346 13.28978 38046 ft 402 kts 249°
2026-04-21 17:05 47.10948 13.21530 38094 ft 404 kts 249°
2026-04-21 17:06 47.08543 13.14076 38095 ft 404 kts 249°
2026-04-21 17:06 47.06123 13.06614 38099 ft 412 kts 249°
2026-04-21 17:07 47.03635 12.98943 38088 ft 418 kts 249°
2026-04-21 17:07 47.01131 12.91274 38088 ft 420 kts 248°
2026-04-21 17:08 46.98599 12.83550 38067 ft 421 kts 248°
2026-04-21 17:08 46.96069 12.75806 38077 ft 422 kts 249°
2026-04-21 17:09 46.92242 12.64191 38058 ft 422 kts 249°
2026-04-21 17:09 46.89684 12.56444 38037 ft 423 kts 249°
2026-04-21 17:10 46.87126 12.48752 38041 ft 423 kts 248°
2026-04-21 17:10 46.84564 12.41029 38035 ft 422 kts 249°
2026-04-21 17:11 46.81990 12.33308 38024 ft 422 kts 248°
2026-04-21 17:11 46.79092 12.25835 38026 ft 428 kts 238°
2026-04-21 17:12 46.75519 12.18898 38053 ft 428 kts 238°
2026-04-21 17:12 46.71954 12.11971 37995 ft 426 kts 238°
2026-04-21 17:13 46.68383 12.05047 38007 ft 427 kts 238°
2026-04-21 17:13 46.64807 11.98142 37997 ft 427 kts 238°
2026-04-21 17:14 46.61229 11.91243 38003 ft 427 kts 238°
2026-04-21 17:14 46.57669 11.84405 37994 ft 427 kts 238°
2026-04-21 17:15 46.54088 11.77528 37983 ft 427 kts 238°
2026-04-21 17:15 46.51918 11.73380 37983 ft 427 kts 237°
2026-04-21 17:16 46.48305 11.66546 37977 ft 426 kts 238°
2026-04-21 17:16 46.44723 11.59682 37973 ft 427 kts 238°
2026-04-21 17:17 46.41139 11.52818 37970 ft 426 kts 238°
2026-04-21 17:17 46.37545 11.45993 37982 ft 426 kts 238°
2026-04-21 17:18 46.33943 11.39175 37976 ft 426 kts 238°
2026-04-21 17:18 46.30341 11.32376 37984 ft 426 kts 238°
2026-04-21 17:19 46.26747 11.25609 37992 ft 425 kts 238°
2026-04-21 17:19 46.23140 11.18822 38049 ft 424 kts 238°
2026-04-21 17:20 46.19536 11.12069 38044 ft 423 kts 238°
2026-04-21 17:20 46.15958 11.05392 38030 ft 423 kts 238°
2026-04-21 17:21 46.12358 10.98677 38028 ft 423 kts 238°
2026-04-21 17:21 46.08753 10.91973 38026 ft 423 kts 238°
2026-04-21 17:22 46.05645 10.86213 38010 ft 422 kts 238°
2026-04-21 17:22 46.02030 10.79523 38007 ft 423 kts 238°
2026-04-21 17:23 45.98430 10.72862 37986 ft 422 kts 238°
2026-04-21 17:23 45.94821 10.66206 38000 ft 422 kts 238°
2026-04-21 17:24 45.91209 10.59565 37988 ft 422 kts 238°
2026-04-21 17:24 45.87622 10.52976 37974 ft 422 kts 238°
2026-04-21 17:25 45.84003 10.46352 37994 ft 422 kts 238°
2026-04-21 17:25 45.80376 10.39733 38012 ft 422 kts 238°
2026-04-21 17:26 45.76743 10.33119 37991 ft 421 kts 238°
2026-04-21 17:26 45.73122 10.26523 38000 ft 421 kts 238°
2026-04-21 17:27 45.69492 10.19937 37945 ft 421 kts 238°
2026-04-21 17:27 45.67667 10.16673 37563 ft 421 kts 235°
2026-04-21 17:27 45.65555 10.13727 36971 ft 429 kts 225°
2026-04-21 17:28 45.63047 10.11351 36424 ft 437 kts 214°
2026-04-21 17:28 45.60215 10.09656 35853 ft 448 kts 205°
2026-04-21 17:28 45.57218 10.08377 35240 ft 449 kts 204°
2026-04-21 17:28 45.54219 10.07111 34627 ft 450 kts 205°
2026-04-21 17:29 45.51219 10.05844 33988 ft 450 kts 205°
2026-04-21 17:29 45.48212 10.04567 33256 ft 451 kts 205°
2026-04-21 17:29 45.45216 10.03295 32699 ft 448 kts 205°
2026-04-21 17:29 45.42282 10.02054 32178 ft 444 kts 206°
2026-04-21 17:30 45.39325 10.00805 31678 ft 441 kts 206°
2026-04-21 17:30 45.36396 9.99568 31156 ft 437 kts 206°
2026-04-21 17:30 45.33489 9.98337 30616 ft 434 kts 206°
2026-04-21 17:30 45.30599 9.97116 30061 ft 433 kts 206°
2026-04-21 17:31 45.27708 9.95895 29354 ft 433 kts 206°
2026-04-21 17:31 45.24823 9.94675 28651 ft 433 kts 206°
2026-04-21 17:31 45.21934 9.93451 27969 ft 432 kts 206°
2026-04-21 17:31 45.19047 9.92232 27301 ft 432 kts 206°
2026-04-21 17:32 45.17143 9.91432 26870 ft 432 kts 206°
2026-04-21 17:32 45.13288 9.89816 25965 ft 431 kts 206°
2026-04-21 17:32 45.10415 9.88617 25343 ft 429 kts 206°
2026-04-21 17:32 45.07589 9.87441 24743 ft 428 kts 206°
2026-04-21 17:33 45.04732 9.86249 24152 ft 427 kts 206°
2026-04-21 17:33 45.01874 9.85053 23567 ft 426 kts 206°
2026-04-21 17:33 44.99032 9.83864 22874 ft 425 kts 206°
2026-04-21 17:33 44.96196 9.82680 22196 ft 424 kts 205°
2026-04-21 17:34 44.93371 9.81504 21516 ft 422 kts 205°
2026-04-21 17:34 44.90558 9.80336 20870 ft 420 kts 204°
2026-04-21 17:34 44.87760 9.79176 20239 ft 419 kts 204°
2026-04-21 17:34 44.84966 9.78021 19625 ft 417 kts 204°
2026-04-21 17:35 44.82182 9.76867 19020 ft 415 kts 204°
2026-04-21 17:35 44.79474 9.75745 18441 ft 413 kts 203°
2026-04-21 17:35 44.76724 9.74605 17772 ft 412 kts 203°
2026-04-21 17:35 44.73977 9.73469 17087 ft 410 kts 203°
2026-04-21 17:36 44.71241 9.72337 16449 ft 409 kts 203°
2026-04-21 17:36 44.68551 9.71227 15834 ft 407 kts 202°
2026-04-21 17:36 44.65841 9.70113 15283 ft 403 kts 202°
2026-04-21 17:36 44.63167 9.69009 14738 ft 399 kts 201°
2026-04-21 17:37 44.60520 9.67921 14208 ft 394 kts 202°
2026-04-21 17:37 44.57905 9.66846 13660 ft 389 kts 201°
2026-04-21 17:37 44.56156 9.66129 13260 ft 385 kts 201°
2026-04-21 17:37 44.52789 9.64755 12498 ft 377 kts 201°
2026-04-21 17:38 44.50290 9.63707 11931 ft 371 kts 204°
2026-04-21 17:38 44.48068 9.62033 11374 ft 358 kts 222°
2026-04-21 17:38 44.46217 9.59739 10831 ft 354 kts 224°
2026-04-21 17:38 44.44301 9.57591 10385 ft 350 kts 220°
2026-04-21 17:39 44.42344 9.55602 9942 ft 346 kts 218°
2026-04-21 17:39 44.40411 9.53697 9433 ft 342 kts 218°
2026-04-21 17:39 44.38480 9.51782 8902 ft 339 kts 218°
2026-04-21 17:39 44.36580 9.49862 8387 ft 335 kts 218°
2026-04-21 17:40 44.34710 9.47938 7879 ft 333 kts 218°
2026-04-21 17:40 44.32856 9.46006 7378 ft 331 kts 218°
2026-04-21 17:40 44.31028 9.44087 6912 ft 327 kts 218°
2026-04-21 17:40 44.29277 9.42078 6447 ft 323 kts 229°
2026-04-21 17:41 44.28184 9.39395 5974 ft 318 kts 255°
2026-04-21 17:41 44.27979 9.37389 5649 ft 315 kts 272°
2026-04-21 17:41 44.28438 9.34432 5171 ft 312 kts 291°
2026-04-21 17:41 44.29344 9.31689 4695 ft 311 kts 298°
2026-04-21 17:42 44.30416 9.29073 4209 ft 310 kts 301°
2026-04-21 17:42 44.31882 9.25748 3996 ft 294 kts 299°
2026-04-21 17:42 44.32434 9.24017 4001 ft 282 kts 291°
2026-04-21 17:42 44.33064 9.21530 4009 ft 267 kts 289°
2026-04-21 17:43 44.33624 9.19126 4006 ft 253 kts 288°
2026-04-21 17:43 44.34131 9.16845 4007 ft 238 kts 287°
2026-04-21 17:43 44.34600 9.14697 4012 ft 226 kts 287°
2026-04-21 17:43 44.35055 9.12606 4006 ft 224 kts 287°
2026-04-21 17:44 44.35511 9.10519 4013 ft 224 kts 287°
2026-04-21 17:44 44.35967 9.08433 3776 ft 224 kts 287°
2026-04-21 17:44 44.36422 9.06355 3456 ft 224 kts 287°
2026-04-21 17:44 44.36881 9.04250 3000 ft 230 kts 287°
2026-04-21 17:45 44.37347 9.02110 2393 ft 235 kts 287°
2026-04-21 17:45 44.37823 8.99918 1878 ft 234 kts 287°
2026-04-21 17:45 44.38287 8.97780 1596 ft 217 kts 287°
2026-04-21 17:45 44.38706 8.95849 1170 ft 201 kts 286°
2026-04-21 17:46 44.39068 8.94056 869 ft 183 kts 283°
2026-04-21 17:46 44.39381 8.92419 607 ft 162 kts 285°
2026-04-21 17:46 44.39732 8.91003 501 ft 152 kts 289°
2026-04-21 17:46 44.40097 8.89654 425 ft 146 kts 288°
2026-04-21 17:47 44.40396 8.88307 369 ft 145 kts 283°
2026-04-21 17:47 44.40652 8.86952 220 ft 144 kts 284°
2026-04-21 17:47 44.40917 8.85604 50 ft 144 kts 284°
2026-04-21 17:47 44.41155 8.84381 23 ft 107 kts 285°
2026-04-21 17:48 44.41287 8.83799 20 ft 19 kts 329°
2026-04-21 17:48 44.41379 8.83747 20 ft 14 kts 10°
2026-04-21 17:48 44.41415 8.83853 20 ft 14 kts 107°
2026-04-21 17:48 44.41385 8.83996 20 ft 17 kts 105°
2026-04-21 17:49 44.41351 8.84172 21 ft 21 kts 105°
2026-04-21 17:49 44.41317 8.84344 20 ft 18 kts 105°
2026-04-21 17:49 44.41361 8.84491 20 ft 15 kts 52°
2026-04-21 17:49 44.41417 8.84595 20 ft 13 kts 59°
2026-04-21 17:50 44.41398 8.84704 21 ft 13 kts 103°
2026-04-21 17:50 44.41374 8.84834 20 ft 15 kts 105°
2026-04-21 17:50 44.41348 8.84980 20 ft 14 kts 102°
2026-04-21 17:50 44.41359 8.85026 20 ft 4 kts 347°
2026-04-21 17:51 44.41394 8.85030 20 ft 6 kts 16°
2026-04-21 17:51 44.41417 8.85038 20 ft 0 kts 15°